Location: Dumpton Point
(51.3500°N, 1.4433°E)
Time: 22:09:00
(UTC+00:00)

Vanguard 1 - Pass Details

Date: 24 September 2022
Orbit: 650 x 3831 km, 34.2° (Epoch: 03 December)

Event Time Altitude Azimuth Distance (km) Brightness Sun altitude
Rises 15:23:38 0° 213° (SSW) 5,771 15.1 20.8°
Reaches altitude 10° 15:30:27 10° 192° (SSW) 3,977 13.9 19.9°
Maximum altitude 15:34:34 13° 167° (SSE) 3,226 13.0 19.3°
Drops below altitude 10° 15:37:55 10° 140° (SE) 3,088 12.5 18.8°
Sets 15:41:51 0° 113° (ESE) 3,609 12.6 18.3°
